Weather History for KARB - May, 2013

Change the Weather History Date:

Thursday, May 30, 2013

  Actual Average (KDTW) Record (KDTW)
Temperature  
Mean Temperature 72 °F 64 °F  
Max Temperature 88 °F 74 °F 93 °F (1942)
Min Temperature 57 °F 54 °F 36 °F (1966)
Degree Days  
Heating Degree Days 0 3  
Month to date heating degree days 205  
Since 1 July heating degree days 6099  
Cooling Degree Days 8 3  
Month to date cooling degree days 38  
Year to date cooling degree days 44  
Growing Degree Days 22 (Base 50)    
Moisture  
Dew Point 63 °F    
Average Humidity 83    
Maximum Humidity 100    
Minimum Humidity 49    
Precipitation  
Precipitation 0.08 in 0.12 in 2.27 in (1889)
Month to date precipitation 3.27  
Year to date precipitation 12.43  
Snow  
Snow 0.00 in 0.00 in 0.00 in ()
Month to date snowfall 0.0  
Since 1 July snowfall 42.5  
Snow Depth -    
Sea Level Pressure  
Sea Level Pressure 30.02 in    
Wind  
Wind Speed 3 mph (SSW)    
Max Wind Speed 17 mph    
Max Gust Speed 28 mph    
Visibility 6 miles    
Events Fog , Rain , Thunderstorm    
T = Trace of Precipitation, MM = Missing Value Source: NWS Daily Summary

Daily Weather History Graph

Daily Weather History Graph

Search for Another Location

Airport or City:

Trip Planner

Search our weather history database for the weather conditions in past years. The results will help you decide how hot, cold, wet, or windy it might be!

Date:

Astronomy

May. 30, 2013 Rise Set
Actual Time 6:02 AM EDT 9:03 PM EDT
Civil Twilight 5:28 AM EDT 9:37 PM EDT
Nautical Twilight 4:45 AM EDT 10:20 PM EDT
Astronomical Twilight 3:55 AM EDT 11:11 PM EDT
Moon 12:59 AM EDT (5/30) 12:13 PM EDT (5/30)
Length of Visible Light 16h 08m
Length of Day
15h 01m
Waning Gibbous, 62% of the Moon is Illuminated
May 30
Waning Gibbous
May 31
Last Quarter
Jun 8
New
Jun 16
First Quarter
Jun 23
Full

Hourly Weather History & Observations

Time (EDT) Temp. Heat Index Dew Point Humidity Pressure Visibility Wind Dir Wind Speed Gust Speed Precip Events Conditions
12:07 AM 64.4 °F - 62.6 °F 94% 30.01 in 3.0 mi Calm Calm - N/A   Clear
12:14 AM 64.4 °F - 64.4 °F 100% 30.01 in 0.8 mi Calm Calm - N/A   Mist
12:29 AM 62.6 °F - 62.6 °F 100% 30.01 in 0.2 mi Calm Calm - N/A Fog Fog
12:53 AM 61.0 °F - 61.0 °F 100% 30.00 in 0.2 mi Calm Calm - N/A Fog Fog
1:25 AM 60.8 °F - 60.8 °F 100% 30.02 in 0.2 mi Calm Calm - N/A Fog Fog
1:36 AM 60.8 °F - 60.8 °F 100% 30.03 in 1.2 mi West 3.5 mph - N/A   Partly Cloudy
1:38 AM 62.6 °F - 60.8 °F 94% 30.03 in 2.0 mi Calm Calm - N/A   Partly Cloudy
1:45 AM 60.8 °F - 60.8 °F 100% 30.03 in 1.2 mi Calm Calm - N/A   Partly Cloudy
1:47 AM 60.8 °F - 60.8 °F 100% 30.03 in 0.8 mi Calm Calm - N/A   Mist
1:53 AM 59.0 °F - 59.0 °F 100% 30.02 in 0.2 mi Calm Calm - N/A Fog Fog
2:06 AM 59.0 °F - 57.2 °F 94% 30.03 in 0.8 mi Calm Calm - N/A   Clear
2:08 AM 59.0 °F - 57.2 °F 94% 30.03 in 1.8 mi Calm Calm - N/A   Clear
2:10 AM 60.8 °F - 59.0 °F 94% 30.03 in 4.0 mi Calm Calm - N/A   Clear
2:29 AM 59.0 °F - 59.0 °F 100% 30.03 in 1.2 mi Calm Calm - N/A   Clear
2:37 AM 60.8 °F - 59.0 °F 94% 30.03 in 0.5 mi Calm Calm - N/A Fog Fog
2:53 AM 57.0 °F - 57.0 °F 100% 30.02 in 0.2 mi Calm Calm - N/A Fog Fog
3:10 AM 57.2 °F - 57.2 °F 100% 30.03 in 1.5 mi Calm Calm - N/A   Partly Cloudy
3:12 AM 57.2 °F - 57.2 °F 100% 30.03 in 3.0 mi Calm Calm - N/A   Partly Cloudy
3:22 AM 57.2 °F - 57.2 °F 100% 30.03 in 1.2 mi Calm Calm - N/A   Clear
3:33 AM 57.2 °F - 57.2 °F 100% 30.04 in 0.5 mi Calm Calm - N/A Fog Fog
3:53 AM 57.0 °F - 57.0 °F 100% 30.03 in 0.5 mi Calm Calm - N/A Fog Fog
4:03 AM 59.0 °F - 59.0 °F 100% 30.04 in 1.5 mi Calm Calm - N/A   Clear
4:09 AM 59.0 °F - 59.0 °F 100% 30.04 in 3.0 mi Calm Calm - N/A   Clear
4:53 AM 60.1 °F - 59.0 °F 96% 30.03 in 6.0 mi Calm Calm - N/A   Clear
5:53 AM 60.1 °F - 60.1 °F 100% 30.04 in 6.0 mi Calm Calm - N/A   Clear
6:53 AM 61.0 °F - 59.0 °F 93% 30.05 in 6.0 mi Calm Calm - N/A   Clear
7:53 AM 68.0 °F - 63.0 °F 84% 30.06 in 9.0 mi SSW 4.6 mph - N/A   Mostly Cloudy
8:53 AM 73.0 °F - 64.9 °F 76% 30.06 in 10.0 mi South 6.9 mph - N/A   Partly Cloudy
9:53 AM 78.1 °F - 66.9 °F 68% 30.06 in 10.0 mi Variable 6.9 mph - N/A   Clear
10:53 AM 81.0 °F 83.3 °F 66.9 °F 62% 30.05 in 10.0 mi WSW 11.5 mph 20.7 mph N/A   Clear
11:53 AM 84.0 °F 87.0 °F 68.0 °F 58% 30.04 in 10.0 mi SW 10.4 mph 20.7 mph N/A   Clear
12:53 PM 86.0 °F 88.8 °F 66.9 °F 53% 30.03 in 10.0 mi SW 13.8 mph 23.0 mph N/A   Partly Cloudy
1:37 PM 82.4 °F 84.6 °F 66.2 °F 58% 30.04 in 7.0 mi SW 13.8 mph 23.0 mph 0.01 in Rain , Thunderstorm Light Rain
1:53 PM 82.0 °F 85.9 °F 70.0 °F 67% 30.02 in 10.0 mi WSW 15.0 mph 21.9 mph 0.01 in Thunderstorm Thunderstorm
2:07 PM 84.2 °F 86.6 °F 66.2 °F 55% 30.03 in 10.0 mi SW 12.7 mph 24.2 mph N/A   Mostly Cloudy
2:53 PM 86.0 °F 88.8 °F 66.9 °F 53% 30.00 in 10.0 mi SSW 12.7 mph 20.7 mph N/A   Scattered Clouds
3:46 PM 87.8 °F 90.4 °F 66.2 °F 49% 30.01 in 10.0 mi SSW 17.3 mph 26.5 mph N/A Thunderstorm Partly Cloudy
3:53 PM 88.0 °F 90.7 °F 66.9 °F 49% 29.99 in 10.0 mi WSW 16.1 mph 26.5 mph N/A Thunderstorm Partly Cloudy
4:07 PM 87.8 °F 90.4 °F 66.2 °F 49% 30.00 in 10.0 mi SSW 9.2 mph - N/A   Clear
4:34 PM 80.6 °F 82.7 °F 66.2 °F 61% 30.01 in 10.0 mi South 17.3 mph 27.6 mph N/A Thunderstorm Scattered Clouds
4:53 PM 75.9 °F - 64.9 °F 69% 29.99 in 10.0 mi South 11.5 mph 23.0 mph N/A Thunderstorm Thunderstorm
5:37 PM 80.6 °F 83.2 °F 68.0 °F 65% 29.98 in 10.0 mi SE 10.4 mph - N/A   Partly Cloudy
5:53 PM 81.0 °F 84.1 °F 69.1 °F 67% 29.97 in 10.0 mi SE 6.9 mph - N/A   Partly Cloudy
6:53 PM 79.0 °F - 69.1 °F 72% 29.98 in 10.0 mi SSE 4.6 mph - N/A Thunderstorm Mostly Cloudy
7:27 PM 78.8 °F - 69.8 °F 74% 29.99 in 10.0 mi SSE 6.9 mph - N/A   Partly Cloudy
7:53 PM 79.0 °F - 66.0 °F 64% 29.98 in 10.0 mi SSW 9.2 mph - N/A   Clear
8:53 PM 75.9 °F - 66.0 °F 71% 29.97 in 10.0 mi South 3.5 mph - N/A   Partly Cloudy
9:53 PM 73.0 °F - 66.0 °F 79% 29.99 in 10.0 mi SE 4.6 mph - N/A   Partly Cloudy
10:20 PM 73.4 °F - 66.2 °F 78% 30.03 in 10.0 mi WSW 9.2 mph - N/A Thunderstorm Mostly Cloudy
10:53 PM 70.0 °F - 64.0 °F 81% 30.01 in 10.0 mi WSW 4.6 mph - 0.07 in Rain , Thunderstorm Light Rain
11:05 PM 69.8 °F - 64.4 °F 83% 30.02 in 10.0 mi Calm Calm - N/A   Mostly Cloudy
11:53 PM 66.9 °F - 64.9 °F 93% 30.00 in 10.0 mi Calm Calm - N/A   Clear